RH
81 84 96 99 100 95 90 81 89 96 93 91 93 90 91 93 76 86 86 92 97 84 79 84 86 86 84 75 54 55 54 66 67 64 82 77 85 82 83 78 80 90 76 75 74 82 57
73 79 82 96 100 96 92 88 85 91 96 92 93 92 95 94 79 77 83 86 93 94 85 86 88 87 88 89 44 48 54 64 71 76 79 82 92 87 84 72 76 80 80 79 87 86 74
84 77 81 89 100 100 96 92 86 81 97 93 93 96 95 95 95 87 84 86 93 94 95 88 90 84 78 76 45 51 51 56 72 69 79 92 90 93 89 70 67 76 81 80 88 79 84
100 88 85 88 99 100 98 94 87 76 95 93 90 92 93 95 87 87 83 87 92 94 94 93 89 86 74 52 43 56 58 69 76 71 88 85 73 91 89 75 75 89 84 94 90 86 84
99 99 95 87 93 100 100 97 92 79 94 94 92 92 96 82 88 85 86 88 96 95 95 90 90 82 74 55 67 67 69 63 77 82 81 70 82 85 77 89 90 85 100 96 88 91 90
98 99 98 99 96 100 99 99 96 78 91 96 96 96 95 87 86 85 88 89 75 95 66 80 77 79 67 80 91 84 67 68 73 80 90 92 90 86 89 90 95 95 94 88 95 88 84
87 98 97 98 100 99 100 100 100 83 92 97 97 96 89 81 84 87 86 79 73 75 64 65 58 60 81 85 85 77 72 66 74 83 91 88 96 95 88 75 61 74 74 77 74 84 81
82 82 83 93 95 100 100 100 100 90 87 97 96 97 93 86 89 84 82 90 69 66 79 53 53 70 75 75 72 69 67 76 84 98 89 92 99 78 66 65 65 73 90 87 76 68 73
87 83 88 81 93 93 100 100 100 93 83 97 94 91 97 83 84 79 78 73 62 63 84 58 57 63 67 82 70 74 68 74 89 91 88 84 79 67 73 69 65 70 74 85 81 76 73
87 91 88 85 85 93 99 99 100 95 76 86 85 88 96 81 88 76 69 62 55 66 88 71 71 64 67 64 79 70 75 79 86 97 86 90 71 65 72 77 50 51 52 61 78 82 83
87 92 92 86 86 91 95 99 100 96 82 78 83 95 88 87 85 74 71 61 61 73 96 60 63 52 59 66 72 66 66 73 82 87 88 97 82 74 75 67 48 55 49 64 69 75 59
89 95 98 91 78 98 92 99 100 98 80 80 84 86 85 85 81 75 67 64 73 89 85 74 63 67 63 64 77 62 70 63 62 75 82 90 76 77 74 56 47 50 48 57 63 58 80
94 92 85 94 82 99 83 99 100 99 76 83 82 76 89 79 83 74 67 78 95 89 63 75 70 58 59 64 66 64 69 72 82 92 97 88 81 72 64 60 51 51 60 87 84 86 78
92 91 92 84 94 100 89 97 100 99 74 90 74 88 85 81 77 71 77 90 85 76 78 49 51 64 68 57 60 64 70 77 70 78 96 85 96 88 77 72 63 53 52 78 81 89 72
83 95 90 94 91 100 88 96 100 95 75 88 91 92 86 83 78 78 91 94 73 77 48 52 60 62 79 69 68 71 70 73 68 78 86 83 94 69 74 75 64 58 78 48 67 51 82
76 79 83 96 83 100 94 97 100 92 73 78 94 89 84 83 78 84 92 81 88 57 46 49 72 60 72 79 76 75 61 58 65 67 58 75 91 73 74 67 58 60 48 66 85 71 52
74 78 82 89 87 89 97 98 100 95 74 82 89 94 91 82 82 92 84 79 57 52 59 56 72 70 63 69 67 64 62 66 58 62 50 53 72 89 69 73 68 66 64 61 63 75 86
72 79 79 95 83 98 99 84 100 99 69 99 87 99 94 82 94 95 77 70 56 58 53 58 53 53 57 61 71 63 75 68 53 54 57 60 74 92 72 60 59 66 63 55 81 72 76
72 76 79 86 78 96 82 96 99 99 62 94 95 98 97 94 98 84 64 65 64 65 62 58 55 49 48 59 71 69 73 62 53 54 58 55 84 93 92 68 62 70 65 61 57 74 82
73 74 75 87 85 99 94 100 98 99 64 88 87 99 99 98 92 78 74 70 77 58 55 45 48 47 50 53 50 72 69 66 61 62 58 54 72 74 83 73 71 79 66 62 72 92 75
71 75 75 91 88 100 93 100 98 88 70 98 86 90 81 98 86 79 67 57 70 76 59 47 50 53 55 61 65 65 64 76 69 63 61 69 87 73 58 61 66 66 64 67 80 70 77
74 75 76 92 95 100 99 100 100 80 82 100 87 85 76 83 74 77 75 66 48 63 62 60 56 53 54 70 63 73 65 63 79 72 71 69 96 73 76 60 60 69 66 65 64 60 69
77 78 76 93 100 99 99 99 97 77 98 97 69 62 68 76 86 86 78 66 54 65 59 52 50 54 70 61 51 48 49 58 66 79 80 78 83 89 91 66 62 74 66 67 65 57 57
76 75 84 91 100 100 100 100 98 86 88 60 54 65 72 81 79 75 60 62 63 63 70 70 66 67 69 57 50 46 51 60 62 65 60 79 79 93 97 76 94 60 38 45 59 54 55
78 77 88 91 99 100 99 100 98 96 80 57 54 58 61 77 71 66 61 70 71 74 73 81 73 68 64 58 66 70 72 62 61 58 60 69 92 100 94 96 67 48 48 46 43 54 50
78 78 84 92 98 98 98 98 98 93 87 86 58 47 56 65 66 63 64 67 84 86 80 78 65 67 63 72 72 76 86 73 82 70 57 57 65 92 91 88 80 56 49 43 46 84 64
80 83 85 95 98 97 84 97 98 88 92 61 50 45 58 74 74 67 68 70 60 75 90 79 78 78 72 85 86 82 84 60 87 79 85 80 75 94 92 91 73 49 46 44 60 63 65
82 83 94 98 100 94 90 100 99 87 97 62 56 59 59 86 84 75 75 73 63 74 87 73 78 81 87 81 82 78 78 64 63 67 79 84 87 90 87 96 92 44 47 55 66 64 62
82 83 94 96 99 100 98 100 91 82 99 69 62 61 55 81 80 70 72 69 72 73 81 88 83 92 96 95 91 87 71 65 62 84 56 74 68 78 74 76 57 69 66 58 59 61 60
Wind_Speed
26 24 26 27 22 19 17 16 14 13 14 14 14 16 16 16 18 17 15 15 12 11 13 14 14 15 12 3 3 6 9 9 5 1 2 4 6 6 7 7 8 2 8 6 7 13 6
29 27 26 28 28 23 17 17 14 14 14 14 14 16 16 16 17 17 16 16 14 11 12 13 12 12 3 4 1 6 7 6 5 4 1 6 4 3 4 5 10 5 5 4 6 6 7
30 30 29 30 32 28 21 16 16 14 14 14 14 16 17 15 15 15 16 16 15 13 12 12 11 8 6 12 3 6 4 4 2 1 3 2 10 6 4 6 11 7 4 3 7 2 5
32 31 31 29 31 31 22 19 16 15 14 13 14 14 16 15 16 16 16 17 15 14 13 12 9 7 5 3 1 3 5 1 2 2 2 5 9 9 5 4 6 7 5 3 5 3 5
36 34 33 31 28 28 22 21 16 16 15 13 14 14 15 16 16 16 17 16 16 13 12 9 6 5 5 4 1 3 4 5 6 2 2 3 4 4 2 4 5 0 4 5 2 9 7
38 37 36 34 27 23 25 26 17 16 15 14 14 15 14 15 16 14 16 18 10 9 6 7 10 6 2 4 6 4 11 7 1 1 2 1 5 5 4 7 8 8 6 5 3 4 5
40 40 39 37 34 32 30 29 21 15 16 13 13 14 14 12 15 13 14 5 4 1 4 6 3 6 0 2 4 2 4 6 2 1 4 1 3 7 10 7 12 10 6 8 6 5 2
41 41 43 41 39 36 35 32 24 15 16 14 12 13 12 11 12 8 8 2 3 1 4 7 5 2 3 3 2 2 3 3 1 2 3 4 2 5 6 7 17 14 10 4 3 12 5
40 41 41 41 40 41 32 35 27 17 15 14 12 12 10 10 9 3 3 4 1 3 2 2 2 3 1 5 3 2 2 1 2 5 4 6 3 8 5 6 14 9 15 11 2 6 2
38 39 40 42 42 44 39 30 28 19 14 15 12 10 8 5 3 1 1 3 1 2 3 1 2 2 0 1 2 3 1 2 5 2 7 3 5 4 7 14 8 6 18 16 17 4 2
40 40 40 40 39 42 40 29 30 20 12 15 11 8 8 5 2 1 2 1 1 1 3 1 2 1 1 2 2 2 5 3 5 7 4 3 4 4 8 6 5 0 19 16 12 12 1
40 38 42 40 41 38 35 34 30 20 12 15 11 9 5 6 5 1 3 2 1 4 2 1 3 2 1 3 4 3 3 5 3 6 6 5 2 4 1 4 6 5 14 8 5 3 3
36 38 45 42 39 37 38 30 31 21 15 14 11 7 13 8 3 5 5 2 3 4 3 3 5 4 4 0 3 1 1 1 0 4 5 5 6 4 1 4 7 6 6 3 4 3 4
36 37 40 46 47 36 38 38 35 23 15 13 8 15 11 5 7 7 3 2 2 4 5 3 7 4 2 1 3 3 1 2 3 4 4 4 2 7 8 3 0 2 4 4 5 4 4
36 35 39 40 51 34 34 43 34 25 18 13 15 11 6 9 9 8 2 2 3 6 5 8 10 8 1 1 1 1 2 5 3 1 5 4 2 3 2 4 3 4 3 3 4 3 4
39 39 39 41 43 37 29 28 34 28 22 17 11 9 7 11 9 4 2 3 3 3 4 6 5 5 5 6 4 1 2 3 3 3 1 5 5 2 4 3 1 2 2 3 3 3 2
40 40 40 39 44 40 34 26 33 32 28 25 7 3 9 10 6 1 3 4 5 4 3 5 3 5 5 6 5 4 2 2 1 1 4 2 3 1 2 2 1 3 2 3 3 4 4
42 40 43 40 47 42 26 52 34 35 38 24 5 3 14 13 3 3 4 5 1 5 1 2 2 2 6 6 6 5 5 1 2 5 1 2 4 3 2 1 1 2 1 3 4 4 0
41 41 43 44 50 50 40 36 41 37 46 19 4 3 7 5 3 4 4 4 3 5 4 4 3 2 3 5 5 5 5 3 3 3 1 2 2 3 2 4 3 3 4 3 2 2 2
42 42 44 41 45 45 44 44 43 39 41 13 4 4 2 2 2 4 6 6 4 2 4 2 2 3 1 2 3 4 3 1 4 3 4 3 3 5 5 4 4 4 5 5 4 3 3
42 43 45 42 46 42 33 36 45 41 45 9 3 4 5 5 6 6 2 4 7 4 2 4 1 3 3 3 3 4 7 3 4 2 3 3 3 2 1 3 2 2 5 8 7 6 5
42 43 45 41 46 45 37 44 43 41 42 5 4 4 3 4 4 10 4 5 12 6 6 4 2 6 4 4 2 5 9 5 4 2 3 2 2 2 3 0 2 3 5 5 7 5 7
41 42 44 41 45 47 22 48 40 45 33 5 5 1 4 7 5 6 4 5 8 8 2 4 5 6 6 4 2 2 2 6 8 7 5 5 4 3 3 3 2 5 8 9 5 4 8
40 40 39 40 42 36 11 39 41 44 32 3 5 4 3 3 6 7 4 6 8 4 6 3 7 5 3 2 2 3 6 8 7 3 3 4 4 2 2 2 0 6 2 1 11 5 6
38 38 36 39 39 40 29 26 32 35 38 3 1 2 3 3 3 4 3 5 7 6 4 4 3 2 2 3 4 4 3 3 3 5 5 4 3 2 3 2 4 2 3 3 3 3 4
35 38 38 38 41 39 23 27 34 33 34 8 3 2 3 5 1 4 5 6 5 4 3 3 2 1 3 2 2 4 4 4 3 1 4 4 3 3 2 2 4 4 3 2 3 1 5
34 34 37 43 50 19 19 34 32 34 27 8 3 3 5 4 3 4 3 4 3 4 4 3 3 3 3 2 2 3 3 5 5 7 5 3 2 4 3 2 5 4 2 2 3 3 3
32 31 32 37 20 15 30 31 26 26 27 9 3 3 4 3 4 6 5 4 3 2 4 4 4 3 2 2 3 3 3 4 4 6 6 6 5 4 3 2 5 2 3 1 2 4 6
29 28 29 31 23 9 27 26 26 21 25 16 4 12 16 6 3 17 20 15 7 3 3 3 3 2 2 3 0 1 0 1 4 3 1 2 5 4 6 4 2 6 9 4 6 5 5
Wind_Direction
312 311 301 294 275 286 291 297 294 293 298 306 313 315 319 317 320 320 325 309 308 305 307 310 317 324 330 319 263 51 -0 346 7 136 339 305 294 205 185 179 155 192 174 197 331 305 275
312 309 306 303 274 271 284 288 288 289 293 302 309 311 314 316 317 318 315 309 303 305 301 303 316 330 290 269 13 12 23 351 349 46 282 0 320 301 241 189 180 132 78 140 285 329 301
313 312 310 307 288 264 279 288 285 287 289 297 307 311 316 318 316 320 314 310 296 297 303 299 308 318 264 254 323 14 7 345 327 39 192 70 359 335 4 193 136 125 104 102 232 17 331
312 310 312 311 311 262 270 286 283 282 281 290 303 308 312 315 319 320 309 304 294 289 292 295 290 293 253 260 261 59 9 82 112 298 196 228 332 300 257 316 73 106 81 63 325 205 333
327 317 310 311 310 271 267 279 276 280 278 282 291 301 310 313 320 320 311 300 293 287 284 277 267 207 269 328 320 303 356 321 130 107 158 9 313 257 175 234 109 291 131 152 346 203 222
334 327 315 311 305 286 277 270 264 273 270 275 286 298 309 313 319 320 313 303 290 293 283 232 252 274 263 301 287 298 255 289 109 169 87 273 197 217 187 203 177 149 134 167 180 21 110
325 329 331 315 309 294 279 266 259 267 264 268 282 293 306 317 316 323 322 348 47 26 247 202 230 294 135 284 302 307 255 198 108 297 140 1 94 194 207 214 139 124 90 166 192 220 144
324 320 320 328 313 308 269 274 256 253 260 264 276 290 304 312 314 312 303 272 102 201 316 252 247 122 168 159 29 17 285 221 87 75 129 92 283 230 256 157 124 105 90 79 171 181 222
322 320 317 316 322 304 278 272 255 243 253 257 269 286 295 318 312 295 206 311 258 355 239 168 123 228 154 182 126 242 207 52 163 104 148 162 175 234 119 218 140 152 172 165 178 140 282
325 322 316 314 317 318 305 271 244 235 241 248 262 278 286 310 293 303 152 176 233 348 81 73 204 252 345 241 53 254 235 305 48 62 100 53 193 204 115 175 219 191 174 153 123 104 142
322 319 319 315 309 310 313 261 237 227 234 244 249 258 280 212 272 175 157 170 32 6 61 317 111 149 262 136 198 293 227 242 97 78 177 45 96 90 66 327 137 287 135 144 148 138 210
319 322 325 320 312 306 305 271 232 219 210 242 241 253 195 178 213 207 173 153 30 49 261 218 131 160 98 183 188 210 245 224 245 44 92 83 111 54 280 319 105 219 89 70 77 81 43
316 318 324 327 312 297 302 291 219 213 194 231 239 227 177 160 177 174 152 100 45 111 278 197 166 159 138 15 28 224 178 52 130 79 31 23 33 342 325 20 10 66 69 44 26 37 213
322 322 328 335 325 298 306 309 213 198 182 218 219 158 167 161 153 158 152 92 100 183 197 188 133 116 109 86 13 314 191 70 356 76 83 72 30 343 346 44 241 72 92 151 156 176 222
328 328 330 326 323 299 304 308 197 182 163 200 165 168 168 171 174 171 130 119 207 214 150 158 154 149 177 207 123 282 236 173 222 192 116 122 44 317 1 339 19 314 50 200 110 67 87
326 330 327 319 323 328 306 292 185 169 153 177 173 170 145 172 169 162 152 259 203 260 140 174 177 177 144 173 134 256 222 33 157 238 287 166 105 314 312 320 327 92 240 56 6 112 171
328 327 326 321 327 316 308 322 181 163 145 165 179 142 157 169 151 87 189 232 206 241 49 164 223 195 136 148 151 201 125 320 70 262 33 120 91 269 70 324 297 9 31 44 99 129 164
327 326 326 324 330 319 302 308 189 161 141 170 183 168 165 160 150 229 193 198 272 163 100 41 219 268 154 149 164 184 173 100 196 154 88 43 112 111 174 189 6 61 290 127 118 269 41
324 324 325 322 328 322 306 290 178 165 149 154 148 123 163 183 179 196 266 199 217 145 192 195 237 45 13 148 123 136 121 311 165 125 127 141 125 99 0 351 336 225 212 216 119 61 210
321 321 323 321 324 322 313 177 173 169 154 163 135 141 144 203 232 209 202 190 183 115 216 170 43 46 53 88 104 120 105 323 72 90 60 67 143 156 180 201 150 190 204 208 134 117 200
318 318 320 321 325 319 304 190 175 169 158 166 167 190 170 171 219 217 262 201 164 158 258 159 240 203 198 138 96 110 116 112 58 64 35 92 94 86 349 53 56 205 205 202 183 204 183
314 314 318 321 325 320 303 193 180 166 167 183 155 148 136 173 177 187 219 230 181 161 150 196 176 204 112 94 67 154 137 178 182 185 141 142 163 96 342 143 349 309 281 239 234 213 243
311 313 318 321 324 327 219 180 178 171 170 159 195 122 121 144 141 148 218 200 178 122 72 151 184 115 106 135 107 79 186 181 156 148 170 151 129 97 261 352 3 297 223 217 218 208 207
311 314 315 317 321 328 180 179 181 176 174 129 173 132 112 166 150 193 191 206 141 116 134 57 62 96 200 4 336 33 57 91 99 111 161 132 115 99 182 41 305 249 65 277 221 245 224
308 311 313 316 316 314 318 210 188 186 188 25 210 157 133 124 145 189 145 120 90 68 91 86 55 134 97 102 88 78 13 50 70 53 36 95 104 172 129 195 277 277 243 204 159 48 359
308 312 313 313 309 302 283 211 188 190 200 242 216 54 88 120 244 311 122 140 130 116 56 69 65 0 100 105 119 150 179 167 151 82 61 98 120 129 172 173 245 230 193 141 97 170 12
308 310 316 318 314 279 206 194 183 188 194 207 153 60 79 104 5 351 109 157 114 119 116 127 152 70 46 101 122 154 218 153 156 164 165 130 140 179 227 237 278 224 178 53 104 204 60
307 309 315 325 323 172 177 180 175 181 187 193 83 46 91 93 26 11 31 45 27 67 129 200 83 355 50 133 139 226 145 217 131 171 170 160 161 187 163 184 278 118 57 136 155 40 67
304 308 309 315 316 132 167 168 168 181 183 190 96 111 100 76 112 87 67 53 54 36 135 39 124 92 131 96 286 115 118 66 150 188 46 175 178 180 162 206 178 48 102 71 66 71 22